[[{"header":{"parameterUnit":"m.s-1","parameterCategory":1,"la1":30.2991,"la2":30.254,"lo1":-89.0895,"lo2":-89.0444,"dy":0.0017,"dx":0.0017,"nx":28,"ny":28,"refTime":"2023-07-24T09:00:00:Z","depth":0,"parameterNumber":2,"parameterNumberName":"U-component_of_WINDS"},"data":[0,0,0,0,0,0,0,0,0,0,0,0,0,0,0,0,0,0,0,0,0,0,0,0,0,0,0,0,0,0,0,0,0,0,0,0,0,0,0,0,0,0,0,0,0,0,0,0,0,0,0,0,0,0,0,0,0,0,2.2076,2.2077,0,2.2106,2.2106,2.2106,2.2036,2.2033,2.2031,2.2029,2.2061,2.2064,2.2067,0,0,0,0,0,0,0,0,0,0,0,0,0,2.1959,2.1961,2.2076,2.2077,2.2077,2.2106,2.2106,2.2107,2.2036,2.2033,2.2031,2.2028,2.2061,2.2064,2.2068,0,0,0,0,0,0,0,0,0,0,0,0,0,2.2001,2.1962,2.2076,2.2045,2.2043,2.2106,2.2106,2.2107,2.2037,2.2033,2.203,2.2027,2.2059,2.2064,2.2068,2.2163,0,0,2.2082,2.2084,0,0,0,0,0,0,0,0,2.1999,2.2006,2.2049,2.2047,2.2045,2.2063,2.2076,2.2126,2.2038,2.2039,2.2029,2.2025,2.2065,2.2069,2.2082,2.2164,2.2166,2.2082,2.2085,2.2087,2.2088,0,0,0,0,0,0,0,2.1996,2.2004,2.2088,2.205,2.2047,2.203,2.2032,2.2085,2.2071,2.2039,2.2034,2.2038,2.2063,2.2078,2.2082,2.2166,2.2082,2.2086,2.2089,2.209,2.2325,2.2328,0,0,0,0,0,0,2.1997,2.2002,2.2087,2.2089,2.2013,2.2035,2.2037,2.2061,2.207,2.2068,2.2041,2.2035,2.2072,2.2077,2.2083,2.2192,2.2087,2.2091,2.2093,2.2321,2.2325,2.2329,0,0,0,0,0,0,2.1995,2.2005,2.2086,2.2044,2.2053,2.204,2.2067,2.2063,2.2078,2.2071,2.2069,2.2058,2.2069,2.2077,2.2143,2.2192,2.2093,2.2097,2.2317,2.2322,2.2327,2.2412,0,0,0,0,0,0,2.1992,2.2005,2.2041,2.2045,2.2055,2.2145,2.2071,2.2066,2.2085,2.2077,2.2087,2.2086,2.2067,2.2136,2.2147,2.2196,2.21,2.2312,2.2319,2.2326,2.2405,2.242,2.2433,0,0,0,0,0,2.1988,2.2065,2.2043,2.2054,2.21,2.2148,2.2154,2.2131,2.209,2.2125,2.2121,2.2085,2.2185,2.2144,2.2155,2.2207,2.2309,2.2317,2.2325,2.2399,2.2417,2.2432,0,0,0,0,0,0,2.2069,2.2065,2.2041,2.2122,2.2136,2.2136,2.2181,2.2151,2.2178,2.2169,2.214,2.2143,2.2214,2.2217,2.2171,2.2297,2.224,2.2251,2.2292,2.2309,2.2323,2.232,2.2104,0,0,0,0,0,2.2096,2.2135,2.213,2.2202,2.221,2.2194,2.2215,2.2195,2.2208,2.2214,2.2215,2.2229,2.2263,2.2287,2.2318,2.2405,2.2405,2.2446,2.246,2.2471,2.2481,2.2524,2.2541,2.2355,2.2355,2.2355,0,0,2.2153,2.2156,2.2182,2.2218,2.2226,2.2267,2.22,2.2246,2.2276,2.2222,2.2283,2.2284,2.2298,2.2374,2.2407,2.2379,2.2532,2.2482,2.2491,2.2494,2.2534,2.2551,2.2567,2.2361,2.236,2.2359,0,0,2.2276,2.2283,2.2342,2.2351,2.2364,2.2353,2.2367,2.2371,2.2369,2.243,2.2389,2.2424,2.2484,2.2495,2.2509,2.2633,2.26,2.2644,2.2716,2.2758,2.2773,2.2786,2.2828,2.2843,2.2654,2.2654,2.2654,0,2.2345,2.2404,2.2377,2.2425,2.2441,2.2392,2.245,2.2461,2.2484,2.2496,2.2463,2.2536,2.2543,2.2619,2.2649,2.2662,2.2676,2.2643,2.2773,2.2786,2.2797,2.2837,2.2853,2.2659,2.2658,2.2658,2.2657,0,2.2487,2.2528,2.2575,2.2595,2.2617,2.2671,2.265,2.2675,2.2654,2.2646,2.2707,2.2712,2.2742,2.276,2.274,2.2832,2.2814,2.2778,2.272,2.282,2.2857,2.2872,2.2666,2.2664,2.2663,2.2662,0,0,2.2664,2.2666,2.2684,2.2691,2.27,2.2731,2.2782,2.281,2.2831,2.2848,2.2888,2.2939,2.2905,2.292,2.2901,2.2939,2.3033,2.2897,2.2897,2.292,2.3132,2.3158,2.3176,2.3012,2.3015,2.3017,2.313,0,2.2784,2.2869,2.2844,2.2929,2.2965,2.2918,2.2962,2.2972,2.2965,2.2995,2.2988,2.3023,2.2977,2.2985,2.302,2.3014,2.3075,2.3006,2.3048,2.305,2.3044,2.3196,2.3223,2.333,2.3145,2.3147,2.3149,0,2.2935,2.2955,2.3044,2.3043,2.3058,2.3097,2.3119,2.3149,2.3158,2.3151,2.3166,2.3139,2.3187,2.3129,2.3195,2.3148,2.3164,2.3164,2.3167,2.3169,2.3104,2.3199,2.3364,2.3379,2.3172,2.317,2.3168,0,2.3052,2.3101,2.3159,2.3168,2.317,2.3198,2.32,2.3207,2.3224,2.3244,2.3254,2.328,2.3294,2.3314,2.3294,2.3254,2.3361,2.3303,2.3355,2.3356,2.3379,2.3378,2.3546,2.3393,2.3393,2.3392,2.3392,0,2.3187,2.3243,2.3211,2.3247,2.3307,2.3278,2.3338,2.3335,2.334,2.3374,2.3336,2.3369,2.334,2.337,2.3355,2.341,2.3417,2.3411,2.3406,2.3414,2.3414,2.3422,2.3414,2.3396,2.3396,2.3395,2.3394,0,2.3327,2.3309,2.3369,2.3365,2.3365,2.3409,2.3405,2.3437,2.3427,2.347,2.3479,2.3463,2.3496,2.3477,2.3512,2.3501,2.3572,2.3558,2.3568,2.3564,2.3616,2.3611,2.3795,2.3816,2.3651,2.3653,2.3654,0,2.3414,2.3455,2.3454,2.3473,2.3477,2.3509,2.3525,2.3498,2.3517,2.3529,2.356,2.3589,2.3611,2.3665,2.3657,2.3683,2.3668,2.373,2.3671,2.3676,2.3665,2.3662,2.3665,2.3742,2.3744,2.3745,2.3747,0,2.3569,2.3557,2.3582,2.3603,2.3623,2.3639,2.3652,2.367,2.3642,2.3665,2.3697,2.3714,2.3747,2.3776,2.3797,2.3799,2.3768,2.3765,2.3778,2.3785,2.3788,2.3785,2.3598,2.3761,2.3759,2.3758,2.3758,2.3757,2.3684,2.3716,2.372,2.3748,2.3754,2.3766,2.3795,2.3787,2.3813,2.3836,2.3819,2.3856,2.3863,2.3887,2.3893,2.3922,2.3897,2.3916,2.3921,2.3926,2.3931,2.3785,2.3926,2.3926,2.3925,2.3925,2.3925,0,2.3834,2.3833,2.3859,2.3877,2.3898,2.3866,2.3877,2.3897,2.393,2.3938,2.3959,2.3995,2.4022,2.4015,2.4039,2.4063,2.4049,2.407,2.4067,2.4067,2.3954,2.3939,2.4081,2.4081,2.408,2.408,2.408,2.408,2.3915,2.3968,2.3956,2.401,2.4009,2.4044,2.4052,2.4063,2.4068,2.4109,2.413,2.4125,2.4126,2.415,2.4173,2.417,2.4179,2.4205,2.4197,2.4091,2.4076,2.4061,2.4047,2.4208,2.4209,2.4308,2.4309,2.4309]},{"header":{"parameterUnit":"m.s-1","parameterCategory":1,"la1":30.2991,"la2":30.254,"lo1":-89.0895,"lo2":-89.0444,"dy":0.0017,"dx":0.0017,"nx":28,"ny":28,"refTime":"2023-07-24T09:00:00:Z","depth":0,"parameterNumber":3,"parameterNumberName":"V-component_of_WINDS"},"data":[0,0,0,0,0,0,0,0,0,0,0,0,0,0,0,0,0,0,0,0,0,0,0,0,0,0,0,0,0,0,0,0,0,0,0,0,0,0,0,0,0,0,0,0,0,0,0,0,0,0,0,0,0,0,0,0,0,0,0.2387,0.2387,0,0.2374,0.2374,0.2374,0.2356,0.2356,0.2355,0.2355,0.2343,0.2343,0.2343,0,0,0,0,0,0,0,0,0,0,0,0,0,0.2398,0.2397,0.2387,0.2387,0.2387,0.2374,0.2374,0.2374,0.2356,0.2355,0.2355,0.2355,0.2343,0.2343,0.2343,0,0,0,0,0,0,0,0,0,0,0,0,0,0.239,0.2397,0.2387,0.2376,0.2375,0.2374,0.2374,0.2374,0.2356,0.2355,0.2355,0.2355,0.2343,0.2343,0.2343,0.2352,0,0,0.2343,0.2343,0,0,0,0,0,0,0,0,0.239,0.2389,0.2378,0.2377,0.2376,0.2366,0.2373,0.2366,0.2356,0.2363,0.2355,0.2354,0.2351,0.235,0.2349,0.2351,0.2351,0.2343,0.2343,0.2343,0.2343,0,0,0,0,0,0,0,0.2391,0.239,0.2382,0.2378,0.2377,0.2372,0.2371,0.2372,0.236,0.2363,0.2361,0.236,0.2351,0.2349,0.2349,0.2351,0.2343,0.2343,0.2343,0.2343,0.2358,0.2359,0,0,0,0,0,0,0.2393,0.239,0.2383,0.2382,0.2382,0.2373,0.2371,0.237,0.236,0.2358,0.236,0.2359,0.2349,0.2349,0.2348,0.2357,0.2343,0.2343,0.2343,0.2358,0.2358,0.2359,0,0,0,0,0,0,0.2393,0.2392,0.2383,0.2386,0.2384,0.2373,0.2372,0.237,0.2368,0.2358,0.2356,0.2361,0.2349,0.2348,0.2351,0.2357,0.2343,0.2343,0.2357,0.2358,0.2359,0.2376,0,0,0,0,0,0,0.2393,0.2392,0.2396,0.2386,0.2384,0.2386,0.2372,0.237,0.2368,0.2366,0.2358,0.2357,0.2349,0.2351,0.2351,0.2356,0.2343,0.2357,0.2358,0.2358,0.2375,0.2377,0.2379,0,0,0,0,0,0.2394,0.2402,0.2396,0.2395,0.2388,0.2386,0.2385,0.2376,0.2369,0.2372,0.2365,0.2357,0.2356,0.2351,0.2351,0.2357,0.2356,0.2357,0.2358,0.2374,0.2377,0.2379,0,0,0,0,0,0,0.2414,0.2401,0.2394,0.2399,0.2394,0.2383,0.2387,0.2379,0.2376,0.2375,0.2363,0.2361,0.2365,0.2361,0.2356,0.2364,0.2355,0.2356,0.2367,0.237,0.2372,0.2373,0.2343,0,0,0,0,0,0.2419,0.2418,0.2407,0.2412,0.241,0.2399,0.2398,0.239,0.2385,0.2383,0.2376,0.2372,0.237,0.2369,0.2368,0.2374,0.2372,0.2378,0.238,0.2382,0.2383,0.2385,0.2387,0.2362,0.2362,0.2362,0,0,0.243,0.2422,0.2423,0.2416,0.2411,0.2411,0.2397,0.2398,0.2398,0.2383,0.2385,0.238,0.2373,0.2378,0.2379,0.2374,0.2389,0.2383,0.2384,0.2385,0.2386,0.2389,0.2391,0.2363,0.2363,0.2362,0,0,0.2448,0.2443,0.2446,0.2441,0.2433,0.2426,0.2426,0.2417,0.2412,0.2414,0.2402,0.2402,0.24,0.2395,0.2393,0.2408,0.24,0.2408,0.2419,0.2422,0.2424,0.2425,0.243,0.2432,0.2409,0.2409,0.2409,0,0.2463,0.2462,0.2449,0.245,0.2447,0.2433,0.2436,0.2432,0.2424,0.2423,0.2417,0.2413,0.2408,0.2411,0.2414,0.2413,0.2413,0.2409,0.2424,0.2426,0.2427,0.2432,0.2434,0.241,0.241,0.2409,0.2409,0,0.2479,0.2478,0.2482,0.2474,0.2471,0.2474,0.2462,0.2461,0.2453,0.2446,0.2447,0.244,0.2436,0.2435,0.2429,0.2437,0.2434,0.2426,0.2417,0.2431,0.2435,0.2437,0.2411,0.2411,0.241,0.241,0,0,0.2513,0.2496,0.2497,0.2493,0.2482,0.2482,0.2483,0.2478,0.2477,0.2471,0.2472,0.2469,0.2462,0.2459,0.2451,0.2453,0.2465,0.2445,0.2445,0.2449,0.2473,0.2479,0.2481,0.2459,0.2459,0.2459,0.2473,0,0.253,0.253,0.2518,0.2522,0.2521,0.2506,0.2507,0.25,0.2493,0.2491,0.2483,0.2481,0.2472,0.247,0.2471,0.2463,0.2469,0.2462,0.2459,0.246,0.2462,0.2483,0.249,0.2503,0.2475,0.2475,0.2475,0,0.255,0.2545,0.2548,0.2536,0.2535,0.2536,0.253,0.2528,0.252,0.2514,0.251,0.25,0.25,0.249,0.249,0.2485,0.2483,0.2479,0.2479,0.2479,0.2469,0.2484,0.2508,0.251,0.2478,0.2478,0.2477,0,0.2574,0.2568,0.2568,0.2565,0.2551,0.2552,0.2546,0.2537,0.2535,0.2529,0.2527,0.2522,0.2519,0.2515,0.2504,0.2498,0.2505,0.2494,0.25,0.2501,0.2503,0.2504,0.2527,0.2501,0.2501,0.2501,0.2501,0,0.2595,0.2598,0.2579,0.2579,0.2582,0.2567,0.257,0.2563,0.2555,0.2554,0.2541,0.254,0.2525,0.2523,0.2514,0.2515,0.2514,0.2509,0.2507,0.2511,0.2511,0.251,0.2509,0.2502,0.2502,0.2502,0.2502,0,0.2623,0.261,0.261,0.2596,0.2592,0.2594,0.2582,0.2582,0.2573,0.2572,0.2571,0.2557,0.2553,0.2542,0.2535,0.2529,0.2532,0.2528,0.2535,0.2534,0.254,0.254,0.2565,0.2567,0.2539,0.254,0.254,0,0.2637,0.2639,0.2624,0.2622,0.2616,0.2613,0.261,0.2595,0.2592,0.2582,0.2583,0.2578,0.2573,0.2568,0.2558,0.2552,0.2548,0.2556,0.2547,0.255,0.2548,0.2548,0.2548,0.2559,0.2559,0.256,0.256,0,0.2664,0.2657,0.2653,0.2645,0.2641,0.2635,0.2628,0.2627,0.2611,0.2608,0.2604,0.26,0.2592,0.2587,0.258,0.2574,0.2564,0.2563,0.2564,0.2568,0.2572,0.257,0.2541,0.2562,0.2562,0.2562,0.2562,0.2562,0.2686,0.2686,0.2675,0.267,0.2663,0.2656,0.2655,0.2645,0.2641,0.2633,0.2625,0.2621,0.2611,0.26,0.2595,0.2591,0.2586,0.2588,0.2589,0.2589,0.2591,0.2572,0.259,0.259,0.259,0.259,0.259,0,0.2712,0.2704,0.2699,0.2689,0.2685,0.2674,0.2666,0.2663,0.2659,0.2651,0.2646,0.264,0.2635,0.2623,0.2616,0.2616,0.2611,0.2615,0.2615,0.2614,0.2596,0.2596,0.2619,0.2619,0.2619,0.2619,0.2619,0.2619,0.2725,0.2725,0.2716,0.2711,0.2703,0.2699,0.2694,0.2688,0.2681,0.2675,0.267,0.2662,0.2652,0.2644,0.2638,0.2635,0.2633,0.2638,0.2634,0.2618,0.2615,0.2612,0.2612,0.2638,0.2638,0.2652,0.2652,0.2652]}]]